Home > Weather > Pictou County > Past weeks

Flag for Canada Past Weather in Pictou County, Nova Scotia, Canada — Yesterday and Last 2 Weeks

Now
60 °F

Cool.


Feels Like: 59 °F
Forecast: 55 / 67 °F
Wind: 6 mph from Southwest

Location: Caribou Point

Current Time: May 31, 2016 at 7:17:13 AM

Latest Report: May 31, 2016 at 6:00 AM


Visibility: N/A

Pressure: 29.72 "Hg

Humidity: 96%

Dew Point: 59 °F

Location of Pictou CountyLocation

Past Weather in Pictou County — Graph

°F

Pictou County Temperature Yesterday

Maximum temperature yesterday: 61 °F (at 8:00 PM)
Minimum temperature yesterday: 49 °F (at 6:00 AM)
Average temperature yesterday: 54 °F

High & Low Weather Summary for the Past Weeks

 TemperatureHumidityPressure
High74 °F (May 21, 7:00 PM)100% (May 24, 12:00 AM)30.32 "Hg (May 24, 12:00 AM)
Low38 °F (May 16, 11:00 PM)34% (May 21, 7:00 PM)29.46 "Hg (May 16, 5:00 AM)
Average51 °F81%29.98 "Hg
* Reported May 16 5:00 AM — May 31 5:00 AM, Pictou County, Weather by CustomWeather, © 2016

Note: Actual official high and low records may vary slightly from our data, if they occured in-between our weather recording intervals... More about our weather records

Advertising

Pictou County Weather History for the Previous 24 Hours

Scroll right to see more
 ConditionsComfort  
Time TempWeatherWind HumidityBarometerVisibility
5:00 AM
Tue, May 31
58 °FCool.6 mph96%29.72 "HgN/A
4:00 AM56 °FCool.2 mph95%29.73 "HgN/A
3:00 AM56 °FCool.2 mph95%29.75 "HgN/A
2:00 AM59 °FCool.3 mph96%29.77 "HgN/A
1:00 AM57 °FCool.5 mph95%29.77 "HgN/A
12:00 AM56 °FCool.No wind94%29.78 "HgN/A
11:00 PM
Mon, May 30
60 °FCool.3 mph94%29.80 "HgN/A
10:00 PM60 °FCool.5 mph94%29.80 "HgN/A
9:00 PM59 °FCool.6 mph92%29.80 "HgN/A
8:00 PM61 °FCool.6 mph91%29.81 "HgN/A
7:00 PM60 °FCool.8 mph90%29.79 "HgN/A
6:00 PM58 °FCool.9 mph98%29.80 "HgN/A
5:00 PM58 °FCool.8 mph93%29.83 "HgN/A
4:00 PM58 °FCool.8 mph91%29.88 "HgN/A
3:00 PM58 °FCool.8 mph90%29.89 "HgN/A
2:00 PM59 °FCool.10 mph89%29.92 "HgN/A
1:00 PM56 °FCool.9 mph92%29.95 "HgN/A
12:00 PM54 °FCool.12 mph95%29.99 "HgN/A
11:00 AM52 °FCool.16 mph92%30.01 "HgN/A
10:00 AM51 °FCool.14 mph92%30.05 "HgN/A
9:00 AM50 °FCool.1 mph90%30.11 "HgN/A
8:00 AM50 °FCool.8 mph89%30.11 "HgN/A
7:00 AM49 °FCool.2 mph89%30.13 "HgN/A
Weather by CustomWeather, © 2016

See weather overviewHow to use our weather pages